This demonstration page uses our WeatherBlox Daily Observations layout. Learn more.

Left ArrowRight Arrow

Hourly Observations for May 17, 2021

Temp ( °F °C ) Dew Point ( °F °C ) Humidity (%) Winds ( mph kmh ) Pressure ( in mb ) Visibility ( mi km ) Precip ( " mm )
12:15 am 00:15 Clear 50 10 48 9 94 94 N N/A 30.32 1027 10 16 N/A
12:35 am 00:35 Mostly Cloudy 50 10 50 10 100 100 N N/A 30.31 1026 10 16 N/A
12:55 am 00:55 Cloudy 48 9 48 9 100 100 N N/A 30.32 1027 10 16 N/A
1:15 am 01:15 Cloudy 48 9 48 9 100 100 N N/A 30.31 1026 10 16 N/A
1:35 am 01:35 Partly Cloudy 46 8 46 8 100 100 N N/A 30.31 1026 10 16 N/A
1:55 am 01:55 Clear 46 8 46 8 100 100 N N/A 30.31 1026 10 16 N/A
2:15 am 02:15 Partly Cloudy 46 8 46 8 100 100 N N/A 30.30 1026 10 16 N/A
2:35 am 02:35 Clear 45 7 45 7 100 100 N N/A 30.30 1026 10 16 N/A
2:55 am 02:55 Clear 45 7 45 7 100 100 N N/A 30.30 1026 10 16 N/A
3:15 am 03:15 Clear 45 7 45 7 100 100 N N/A 30.30 1026 10 16 N/A
3:35 am 03:35 Clear 45 7 45 7 100 100 N N/A 30.30 1026 10 16 N/A
3:55 am 03:55 Clear 45 7 45 7 100 100 N N/A 30.30 1026 10 16 N/A
4:15 am 04:15 Clear 43 6 43 6 100 100 NNW 3 6 30.31 1026 10 16 N/A
4:35 am 04:35 Clear 43 6 43 6 100 100 N N/A 30.30 1026 10 16 N/A
4:55 am 04:55 Clear 41 5 41 5 100 100 NW 3 6 30.30 1026 10 16 N/A
5:15 am 05:15 Clear 43 6 43 6 100 100 N N/A 30.30 1026 10 16 N/A
5:35 am 05:35 Clear 41 5 41 5 100 100 N N/A 30.31 1027 10 16 N/A
5:55 am 05:55 Clear 41 5 41 5 100 100 N N/A 30.31 1027 10 16 N/A
6:15 am 06:15 Sunny 41 5 41 5 100 100 N N/A 30.31 1027 10 16 N/A
6:35 am 06:35 Sunny 41 5 41 5 100 100 N N/A 30.32 1027 10 16 N/A
6:55 am 06:55 Sunny 41 5 41 5 100 100 N N/A 30.33 1027 10 16 N/A
7:15 am 07:15 Sunny 43 6 43 6 100 100 N N/A 30.34 1028 10 16 N/A
7:35 am 07:35 Sunny 45 7 45 7 100 100 N N/A 30.34 1027 10 16 N/A
7:55 am 07:55 Sunny 45 7 45 7 100 100 N N/A 30.35 1028 10 16 N/A
8:15 am 08:15 Sunny 46 8 46 8 100 100 N N/A 30.34 1027 10 16 N/A
8:35 am 08:35 Sunny 50 10 46 8 88 88 N 3 6 30.35 1028 10 16 N/A
8:55 am 08:55 Sunny 52 11 48 9 88 88 N N/A 30.35 1028 10 16 N/A
9:15 am 09:15 Sunny 54 12 48 9 82 82 N N/A 30.35 1028 10 16 N/A
9:35 am 09:35 Sunny 55 13 48 9 77 77 N N/A 30.35 1028 10 16 N/A
9:55 am 09:55 Sunny 57 14 48 9 72 72 N N/A 30.35 1028 10 16 N/A
10:15 am 10:15 Sunny 59 15 50 10 72 72 ENE 5 7 30.34 1027 10 16 N/A
10:35 am 10:35 Sunny 61 16 48 9 63 63 N N/A 30.34 1027 10 16 N/A
10:55 am 10:55 Sunny 61 16 48 9 63 63 N N/A 30.34 1027 10 16 N/A
11:15 am 11:15 Sunny 63 17 48 9 59 59 N N/A 30.34 1027 10 16 N/A
11:35 am 11:35 Sunny 63 17 46 8 56 56 ESE 6 9 30.34 1027 10 16 N/A
11:55 am 11:55 Partly Cloudy 64 18 48 9 56 56 N N/A 30.32 1027 10 16 N/A
12:15 pm 12:15 Mostly Cloudy 66 19 45 7 46 46 W 6 9 30.32 1027 10 16 N/A
12:35 pm 12:35 Partly Cloudy 68 20 45 7 43 43 SW 6 9 30.32 1027 10 16 N/A
12:55 pm 12:55 Partly Cloudy 68 20 46 8 46 46 SW 7 11 30.32 1027 10 16 N/A
1:15 pm 13:15 Partly Cloudy 68 20 45 7 43 43 SSE 5 7 30.31 1026 10 16 N/A
1:35 pm 13:35 Partly Cloudy 68 20 45 7 43 43 S 6 9 30.31 1026 10 16 N/A
1:55 pm 13:55 Cloudy 68 20 46 8 46 46 E 6 9 30.30 1026 10 16 N/A
2:15 pm 14:15 Partly Cloudy 70 21 46 8 43 43 SE 8 13 30.30 1026 10 16 N/A
2:35 pm 14:35 Partly Cloudy 68 20 46 8 46 46 SE 7 11 30.30 1026 10 16 N/A
2:55 pm 14:55 Mostly Cloudy 68 20 46 8 46 46 ESE 6 9 30.29 1026 10 16 N/A
3:15 pm 15:15 Cloudy 70 21 46 8 43 43 SW 5 7 30.29 1026 10 16 N/A
3:35 pm 15:35 Partly Cloudy 72 22 46 8 41 41 N N/A 30.28 1025 10 16 N/A
3:55 pm 15:55 Mostly Cloudy 70 21 46 8 43 43 SE 3 6 30.28 1025 10 16 N/A
4:15 pm 16:15 Cloudy 70 21 45 7 40 40 S 3 6 30.27 1025 10 16 N/A
4:35 pm 16:35 Partly Cloudy 70 21 46 8 43 43 N N/A 30.27 1025 10 16 N/A
4:55 pm 16:55 Partly Cloudy 72 22 46 8 41 41 N N/A 30.27 1025 10 16 N/A
5:15 pm 17:15 Mostly Cloudy 70 21 46 8 43 43 E 7 11 30.27 1025 10 16 N/A
5:35 pm 17:35 Mostly Cloudy 72 22 46 8 41 41 S 5 7 30.27 1025 10 16 N/A
5:55 pm 17:55 Mostly Cloudy 72 22 46 8 41 41 S 5 7 30.27 1025 10 16 N/A
6:15 pm 18:15 Mostly Cloudy 70 21 45 7 40 40 N N/A 30.27 1025 10 16 N/A
6:35 pm 18:35 Partly Cloudy 70 21 46 8 43 43 ENE 5 7 30.27 1025 10 16 N/A
6:55 pm 18:55 Partly Cloudy 70 21 46 8 43 43 ENE 3 6 30.27 1025 10 16 N/A
7:15 pm 19:15 Partly Cloudy 70 21 48 9 46 46 ENE 3 6 30.27 1025 10 16 N/A
7:35 pm 19:35 Sunny 70 21 48 9 46 46 ENE 5 7 30.28 1025 10 16 N/A
7:55 pm 19:55 Sunny 68 20 50 10 53 53 ENE 3 6 30.28 1025 10 16 N/A
8:15 pm 20:15 Sunny 68 20 50 10 53 53 ESE 3 6 30.29 1026 10 16 N/A
8:35 pm 20:35 Clear 68 20 50 10 53 53 ESE 3 6 30.29 1026 10 16 N/A
8:55 pm 20:55 Clear 66 19 50 10 56 56 ESE 5 7 30.29 1026 10 16 N/A
9:15 pm 21:15 Clear 64 18 50 10 60 60 ESE 3 6 30.30 1026 10 16 N/A
9:35 pm 21:35 Clear 64 18 50 10 60 60 ESE 5 7 30.30 1026 10 16 N/A
9:55 pm 21:55 Clear 64 18 50 10 60 60 ESE 5 7 30.31 1027 10 16 N/A
10:15 pm 22:15 Clear 63 17 50 10 64 64 N N/A 30.33 1027 10 16 N/A
10:35 pm 22:35 Clear 63 17 50 10 64 64 SE 3 6 30.33 1027 10 16 N/A
10:55 pm 22:55 Clear 59 15 52 11 77 77 N N/A 30.33 1027 10 16 N/A
11:15 pm 23:15 Clear 59 15 52 11 77 77 N N/A 30.33 1027 10 16 N/A
11:35 pm 23:35 Clear 57 14 52 11 82 82 N N/A 30.34 1027 10 16 N/A
11:55 pm 23:55 Clear 55 13 50 10 82 82 N N/A 30.33 1027 10 16 N/A

Powered by AerisWeather